[[{"header":{"parameterUnit":"m.s-1","parameterCategory":1,"la1":30.2991,"la2":30.254,"lo1":-89.0895,"lo2":-89.0444,"dy":0.0017,"dx":0.0017,"nx":28,"ny":28,"refTime":"2025-06-05T09:00:00:Z","depth":0,"parameterNumber":2,"parameterNumberName":"U-component_of_WINDS"},"data":[0,0,0,0,0,0,0,0,0,0,0,0,0,0,0,0,0,0,0,0,0,0,0,0,0,0,0,0,0,0,0,0,0,0,0,0,0,0,0,0,0,0,0,0,0,0,0,0,0,0,0,0,0,0,0,0,0,0,1.7458,1.7459,0,1.7549,1.755,1.7551,1.7585,1.7585,1.7585,1.7585,1.7682,1.7685,1.7687,0,0,0,0,0,0,0,0,0,0,0,0,0,1.7316,1.7318,1.7458,1.7459,1.746,1.7549,1.755,1.7552,1.7586,1.7585,1.7585,1.7584,1.7681,1.7684,1.7688,0,0,0,0,0,0,0,0,0,0,0,0,0,1.739,1.7319,1.7457,1.7488,1.7491,1.7549,1.755,1.7552,1.7586,1.7585,1.7585,1.7584,1.768,1.7684,1.7688,1.7724,0,0,1.7701,1.7703,0,0,0,0,0,0,0,0,1.7385,1.7395,1.7482,1.7486,1.749,1.7555,1.7536,1.761,1.7586,1.755,1.7585,1.7584,1.764,1.7648,1.7666,1.7728,1.7732,1.7702,1.7704,1.7706,1.7707,0,0,0,0,0,0,0,1.738,1.7391,1.7494,1.7483,1.7488,1.7498,1.7508,1.755,1.7597,1.7553,1.7556,1.7566,1.7642,1.7662,1.7669,1.7734,1.7702,1.7705,1.7708,1.771,1.783,1.7831,0,0,0,0,0,0,1.737,1.7386,1.7491,1.7497,1.7435,1.7501,1.7512,1.7535,1.7596,1.7605,1.7566,1.7567,1.7655,1.7664,1.7672,1.7718,1.7706,1.771,1.7713,1.783,1.783,1.7831,0,0,0,0,0,0,1.7366,1.7379,1.7487,1.7442,1.7457,1.7503,1.7529,1.7537,1.7556,1.7606,1.7615,1.7577,1.7655,1.7666,1.771,1.7722,1.7712,1.7716,1.7829,1.783,1.7831,1.7809,0,0,0,0,0,0,1.7362,1.7377,1.739,1.7442,1.7459,1.7523,1.753,1.7539,1.7563,1.7565,1.7619,1.7627,1.7655,1.7704,1.7715,1.7727,1.7719,1.7828,1.7829,1.783,1.7809,1.7809,1.7809,0,0,0,0,0,1.7357,1.7381,1.7391,1.7403,1.7476,1.7523,1.7533,1.7564,1.7564,1.7578,1.761,1.7626,1.7719,1.7708,1.7721,1.7735,1.7827,1.7829,1.783,1.7809,1.7809,1.7809,0,0,0,0,0,0,1.733,1.7389,1.74,1.7441,1.7477,1.7529,1.7548,1.7563,1.76,1.7601,1.7639,1.765,1.7692,1.7718,1.7705,1.7773,1.7774,1.7778,1.7754,1.7754,1.7754,1.7747,1.7723,0,0,0,0,0,1.7329,1.7361,1.7411,1.7443,1.746,1.7501,1.7523,1.7543,1.7582,1.7598,1.7633,1.7671,1.7709,1.7733,1.7771,1.7813,1.7825,1.7829,1.7829,1.7829,1.7832,1.7856,1.7859,1.7836,1.7835,1.7835,0,0,1.7327,1.7363,1.7381,1.7439,1.7469,1.7502,1.7513,1.7548,1.7574,1.7603,1.7647,1.7674,1.7719,1.7763,1.7784,1.7786,1.7841,1.7831,1.783,1.7833,1.7858,1.786,1.7862,1.7836,1.7836,1.7836,0,0,1.7341,1.7371,1.7401,1.743,1.7476,1.7502,1.751,1.7559,1.7578,1.7622,1.7645,1.7677,1.7741,1.7772,1.7797,1.7823,1.7838,1.7834,1.7835,1.7858,1.786,1.7862,1.7871,1.7873,1.7837,1.7837,1.7837,0,1.7333,1.7383,1.7414,1.7448,1.7473,1.75,1.7531,1.7559,1.7615,1.7632,1.7633,1.7714,1.7747,1.7798,1.7804,1.7823,1.7833,1.7828,1.7857,1.7859,1.7861,1.787,1.7874,1.7836,1.7836,1.7836,1.7836,0,1.7371,1.7406,1.7425,1.7476,1.7504,1.7536,1.7573,1.7597,1.7616,1.7642,1.7687,1.7727,1.7773,1.7787,1.7806,1.7841,1.7841,1.7849,1.7852,1.7862,1.7871,1.7875,1.7835,1.7835,1.7835,1.7835,0,0,1.737,1.7438,1.7445,1.7469,1.7521,1.7549,1.7583,1.7627,1.7647,1.7684,1.7714,1.7768,1.7776,1.7803,1.7826,1.7847,1.7864,1.7852,1.7854,1.7853,1.7906,1.7899,1.7902,1.7875,1.7876,1.7877,1.7902,0,1.739,1.7451,1.748,1.7528,1.7561,1.7588,1.7617,1.7653,1.7679,1.7712,1.7742,1.7779,1.7787,1.7803,1.7825,1.7857,1.7875,1.7856,1.7904,1.7905,1.7891,1.7907,1.79,1.7922,1.7906,1.7906,1.7907,0,1.7421,1.7458,1.7509,1.7557,1.7572,1.7598,1.7641,1.7671,1.7713,1.773,1.7761,1.7783,1.7821,1.7821,1.7874,1.786,1.7882,1.7901,1.7902,1.7908,1.7906,1.7913,1.793,1.7932,1.7913,1.7912,1.7912,0,1.7415,1.7477,1.7515,1.7535,1.7592,1.761,1.7635,1.7676,1.77,1.7738,1.7755,1.7797,1.782,1.7853,1.7886,1.7883,1.7936,1.7939,1.7952,1.7952,1.7962,1.7961,1.7982,1.7976,1.7976,1.7976,1.7976,0,1.7434,1.7464,1.7513,1.7537,1.7572,1.7606,1.764,1.7667,1.7703,1.7733,1.776,1.7788,1.783,1.7863,1.789,1.793,1.794,1.7956,1.7963,1.7954,1.7951,1.7968,1.7967,1.7977,1.7977,1.7977,1.7977,0,1.7432,1.7466,1.751,1.7561,1.7574,1.7598,1.7641,1.7666,1.7694,1.7731,1.7742,1.7786,1.7827,1.7863,1.7918,1.7936,1.7977,1.7985,1.7962,1.7966,1.7977,1.7975,1.8009,1.8016,1.8006,1.8006,1.8006,0,1.7442,1.7466,1.7519,1.754,1.7564,1.7599,1.7624,1.7659,1.7684,1.7733,1.7752,1.7795,1.7831,1.7895,1.7932,1.7974,1.7984,1.7993,1.799,1.798,1.7984,1.7982,1.7984,1.7992,1.7992,1.7992,1.7992,0,1.7456,1.7471,1.7506,1.7547,1.7576,1.761,1.7645,1.7661,1.7703,1.773,1.7772,1.7799,1.7854,1.7897,1.7943,1.797,1.7988,1.7993,1.7998,1.7989,1.7974,1.7982,1.7961,1.7992,1.7992,1.7992,1.7992,1.7992,1.746,1.7483,1.7523,1.7561,1.7591,1.7623,1.7648,1.7679,1.7714,1.7761,1.778,1.7822,1.7864,1.7927,1.7954,1.7988,1.7992,1.7999,1.8001,1.8003,1.8001,1.7969,1.7997,1.7997,1.7997,1.7997,1.7997,0,1.7475,1.7503,1.7537,1.7584,1.7614,1.7628,1.7668,1.7692,1.7729,1.7765,1.78,1.7848,1.7889,1.7929,1.7973,1.7992,1.8002,1.8003,1.8002,1.8007,1.7995,1.7986,1.7994,1.7994,1.7994,1.7994,1.7994,1.7994,1.7486,1.7525,1.7545,1.7599,1.7627,1.7668,1.7689,1.7719,1.7748,1.78,1.7834,1.786,1.7898,1.7945,1.7983,1.7994,1.8009,1.8007,1.8021,1.8009,1.8008,1.8008,1.8,1.801,1.801,1.803,1.803,1.803]},{"header":{"parameterUnit":"m.s-1","parameterCategory":1,"la1":30.2991,"la2":30.254,"lo1":-89.0895,"lo2":-89.0444,"dy":0.0017,"dx":0.0017,"nx":28,"ny":28,"refTime":"2025-06-05T09:00:00:Z","depth":0,"parameterNumber":3,"parameterNumberName":"V-component_of_WINDS"},"data":[0,0,0,0,0,0,0,0,0,0,0,0,0,0,0,0,0,0,0,0,0,0,0,0,0,0,0,0,0,0,0,0,0,0,0,0,0,0,0,0,0,0,0,0,0,0,0,0,0,0,0,0,0,0,0,0,0,0,4.023,4.023,0,4.0254,4.0254,4.0254,4.0277,4.0277,4.0277,4.0278,4.03,4.03,4.03,0,0,0,0,0,0,0,0,0,0,0,0,0,4.0201,4.0201,4.023,4.023,4.023,4.0253,4.0254,4.0254,4.0277,4.0277,4.0277,4.0278,4.03,4.03,4.03,0,0,0,0,0,0,0,0,0,0,0,0,0,4.0218,4.0202,4.023,4.0244,4.0246,4.0253,4.0254,4.0254,4.0277,4.0277,4.0277,4.0278,4.0299,4.03,4.03,4.0295,0,0,4.0302,4.0302,0,0,0,0,0,0,0,0,4.0217,4.0219,4.0242,4.0243,4.0245,4.0263,4.0252,4.0268,4.0276,4.0265,4.0278,4.0278,4.0287,4.0288,4.0292,4.0296,4.0297,4.0302,4.0302,4.0302,4.0303,0,0,0,0,0,0,0,4.0216,4.0218,4.0239,4.0242,4.0244,4.0249,4.0252,4.0255,4.0273,4.0266,4.0268,4.027,4.0288,4.0291,4.0292,4.0297,4.0302,4.0302,4.0303,4.0303,4.0295,4.0295,0,0,0,0,0,0,4.0213,4.0217,4.0238,4.024,4.0232,4.0249,4.0252,4.0257,4.0273,4.0276,4.027,4.0271,4.029,4.0292,4.0293,4.0286,4.0302,4.0303,4.0303,4.0296,4.0295,4.0294,0,0,0,0,0,0,4.0212,4.0214,4.0237,4.0229,4.0232,4.0249,4.0254,4.0257,4.026,4.0276,4.0279,4.027,4.0291,4.0293,4.0294,4.0288,4.0303,4.0303,4.0296,4.0295,4.0295,4.0273,0,0,0,0,0,0,4.0211,4.0214,4.0213,4.0229,4.0233,4.0238,4.0253,4.0257,4.0261,4.0263,4.0277,4.028,4.0291,4.0293,4.0294,4.0288,4.0304,4.0297,4.0296,4.0295,4.0275,4.0272,4.0269,0,0,0,0,0,4.021,4.0206,4.0213,4.0215,4.0231,4.0238,4.024,4.0254,4.0261,4.0259,4.0269,4.028,4.0288,4.0293,4.0295,4.0289,4.0297,4.0296,4.0295,4.0276,4.0272,4.027,0,0,0,0,0,0,4.0188,4.0208,4.0216,4.0217,4.0226,4.0242,4.024,4.025,4.0256,4.0258,4.0274,4.0277,4.0276,4.0282,4.0287,4.0283,4.0294,4.0293,4.0279,4.0276,4.0273,4.0271,4.0304,0,0,0,0,0,4.0184,4.0188,4.0205,4.0204,4.0208,4.0223,4.0227,4.0236,4.0246,4.0249,4.0259,4.0267,4.0272,4.0274,4.0279,4.0276,4.0278,4.0272,4.027,4.0268,4.0267,4.0264,4.0261,4.0291,4.0291,4.0291,0,0,4.0174,4.0185,4.0187,4.02,4.0208,4.0211,4.0226,4.0229,4.0231,4.0249,4.0251,4.0258,4.0268,4.0267,4.0267,4.0272,4.0259,4.0266,4.0265,4.0265,4.0262,4.0259,4.0257,4.029,4.029,4.029,0,0,4.0158,4.0168,4.0167,4.0175,4.0186,4.0196,4.0196,4.0211,4.0216,4.0218,4.0232,4.0234,4.0241,4.0247,4.0252,4.0236,4.0246,4.0237,4.0224,4.0221,4.0218,4.0216,4.021,4.0207,4.0236,4.0236,4.0236,0,4.0144,4.0151,4.0166,4.0168,4.0172,4.0189,4.0188,4.0194,4.0206,4.0209,4.0215,4.0224,4.0232,4.0231,4.0228,4.0231,4.023,4.0236,4.0218,4.0216,4.0214,4.0208,4.0205,4.0235,4.0235,4.0235,4.0235,0,4.0133,4.0136,4.0135,4.0146,4.0151,4.0151,4.0165,4.0167,4.0176,4.0185,4.0186,4.0196,4.0202,4.0203,4.0212,4.0203,4.0206,4.0215,4.0226,4.021,4.0204,4.0202,4.0233,4.0234,4.0234,4.0234,0,0,4.0104,4.0123,4.0122,4.0127,4.0141,4.0143,4.0144,4.0151,4.0152,4.0159,4.0159,4.0165,4.0173,4.0177,4.0187,4.0184,4.0169,4.0193,4.0193,4.0187,4.0159,4.0151,4.0148,4.0176,4.0176,4.0175,4.0157,0,4.009,4.0092,4.0105,4.0103,4.0106,4.0121,4.0121,4.0129,4.0137,4.0139,4.0148,4.0151,4.0162,4.0165,4.0163,4.0172,4.0164,4.0173,4.0175,4.0174,4.0171,4.0145,4.0138,4.0121,4.0155,4.0155,4.0155,0,4.0073,4.008,4.0078,4.009,4.0092,4.0092,4.0098,4.0101,4.0109,4.0115,4.012,4.013,4.013,4.0141,4.014,4.0146,4.0148,4.0152,4.0151,4.0151,4.0163,4.0144,4.0115,4.0112,4.0152,4.0152,4.0152,0,4.0051,4.0059,4.0059,4.0063,4.0077,4.0077,4.0082,4.0091,4.0094,4.0099,4.0101,4.0106,4.0109,4.0112,4.0123,4.013,4.012,4.0133,4.0124,4.0124,4.0121,4.0121,4.0091,4.0123,4.0123,4.0123,4.0123,0,4.0033,4.0031,4.0049,4.0049,4.0047,4.0061,4.0058,4.0065,4.0073,4.0073,4.0087,4.0087,4.0102,4.0103,4.0112,4.0109,4.011,4.0114,4.0116,4.0112,4.0111,4.0113,4.0114,4.0123,4.0123,4.0123,4.0123,0,4.0008,4.002,4.002,4.0034,4.0037,4.0035,4.0046,4.0045,4.0054,4.0054,4.0055,4.0068,4.007,4.0081,4.0086,4.0092,4.0085,4.009,4.0083,4.0084,4.0074,4.0074,4.0044,4.004,4.0075,4.0075,4.0074,0,3.9995,3.9994,4.0007,4.0008,4.0013,4.0016,4.0018,4.0032,4.0034,4.0043,4.0041,4.0044,4.0047,4.005,4.0059,4.0062,4.0067,4.0056,4.0067,4.0063,4.0065,4.0064,4.0064,4.0053,4.0052,4.0052,4.0052,0,3.9971,3.9976,3.998,3.9985,3.9988,3.9993,3.9999,3.9999,4.0014,4.0015,4.0017,4.002,4.0024,4.0027,4.0031,4.0036,4.0046,4.0048,4.0046,4.0042,4.0037,4.0038,4.0075,4.0049,4.0049,4.0049,4.0049,4.0049,3.9951,3.995,3.9958,3.9961,3.9967,3.9971,3.9971,3.9979,3.9982,3.9986,3.9994,3.9995,4.0002,4.0009,4.0013,4.0013,4.0019,4.0016,4.0016,4.0014,4.0012,4.0037,4.0014,4.0014,4.0014,4.0015,4.0015,0,3.9926,3.9932,3.9935,3.9942,3.9944,3.9953,3.9959,3.996,3.9961,3.9966,3.9969,3.9971,3.9973,3.9982,3.9985,3.9983,3.9987,3.9983,3.9983,3.9984,4.0007,4.0008,3.998,3.998,3.998,3.998,3.998,3.998,3.9913,3.9912,3.9918,3.9918,3.9924,3.9926,3.9928,3.9932,3.9936,3.9938,3.9939,3.9945,3.9952,3.9955,3.9957,3.996,3.9959,3.9953,3.9957,3.9979,3.9982,3.9985,3.9986,3.9954,3.9954,3.9934,3.9933,3.9933]}]]